Content
SEND FEEDBACK

Daily
Averages
Monthly
Summary
United States of America

HUNTSVILLE, TEXAS


Home > North America > United States > Texas
Elevation: 361 feet     Latitude: 30 44N     Longitude: 095 35W

WEATHER
 
SELECT A DAY
Number of Records: 187,482;   Date Range: 2/3/97 - 7/26/14
 
SHARE

PRINT THIS DATA

[ ← Previous Day ]
WEATHER ALMANAC - JANUARY 31, 2013
[ Next Day → ]
[ °C ]   °F
Weather ElementAverageHighLow
Temperature50.1 °F64 °F (2:53 pm)34 °F (3:53 am)
Dewpoint26.2 °F30.9 °F (10:53 pm)21.9 °F (11:53 am)
Humidity43.8 %75 % (3:53 am)20 % (3:53 pm)
Barometer30.24 in30.30 in (10:53 am)30.19 in (4:53 am)
Wind Speed6.4 mph12.7 mph (9:53 am)
Wind Gust21.9 mph (11:53 am)
Weather ElementAverage
Visibility9.8 mi
Wind DirectionSSW (187.4 °)

Weather ElementTotal
Precipitation---
Heating Degree Days16 (Base 65)
Averaged from 23 records on January 31, 2013
WEATHER CONDITIONS BREAKOUT
WIND DIRECTION BREAKOUT
WEATHER BY HOUR - JANUARY 31, 2013
[ °C ]   °F
Local TimeTemperatureDewpointHumidityBarometerVisibilityWind DirectionWind SpeedGust SpeedPrecipitationEventsConditions
1:53 AM37.0 °F28.0 °F70 %30.22 in10.0 miSouth (180°)4.6 mphClear
2:53 AM36.0 °F27.0 °F70 %30.20 in10.0 miCalmClear
3:53 AM34.0 °F27.0 °F75 %30.20 in10.0 miSouth (190°)3.5 mphClear
4:53 AM36.0 °F27.0 °F70 %30.19 in10.0 miSouth (180°)4.6 mphClear
5:53 AM35.1 °F26.1 °F70 %30.21 in10.0 miSouth (190°)3.5 mphClear
6:53 AM37.0 °F27.0 °F67 %30.22 in10.0 miSouth (190°)4.6 mphClear
7:53 AM39.0 °F27.0 °F62 %30.26 in10.0 miSSW (210°)3.5 mphClear
8:53 AM46.0 °F27.0 °F47 %30.27 in10.0 miSSW (210°)8.1 mphClear
9:53 AM52.0 °F26.1 °F37 %30.29 in10.0 miSSW (210°)12.7 mph18.4 mphClear
10:53 AM55.9 °F25.0 °F30 %30.30 in10.0 miSSW (210°)12.7 mph20.7 mphClear
11:53 AM59.0 °F21.9 °F24 %30.28 in10.0 miWSW (240°)11.5 mph21.9 mphClear
12:53 PM62.1 °F24.1 °F23 %30.26 in10.0 miSW (220°)11.5 mph19.6 mphClear
1:53 PM62.1 °F23.0 °F22 %30.23 in10.0 miSW (230°)8.1 mphClear
2:53 PM64.0 °F23.0 °F21 %30.22 in10.0 miSW (220°)6.9 mphClear
3:53 PM64.0 °F21.9 °F20 %30.21 in10.0 miSW (220°)6.9 mph0.00 inClear
4:53 PM63.0 °F21.9 °F21 %30.20 in10.0 miSW (220°)9.2 mph16.1 mphClear
5:53 PM61.0 °F23.0 °F23 %30.20 in10.0 miSW (220°)3.5 mphClear
6:53 PM55.0 °F27.0 °F34 %30.21 in10.0 miSSW (210°)4.6 mphClear
7:53 PM50.0 °F28.9 °F44 %30.24 in10.0 miCalmClear
8:53 PM50.0 °F28.9 °F44 %30.27 in10.0 miSouth (170°)4.6 mphClear
9:53 PM51.1 °F28.9 °F43 %30.27 in6.0 miSouth (190°)8.1 mphHaze
10:53 PM52.0 °F30.9 °F45 %30.28 in10.0 miSSW (200°)8.1 mphClear
11:53 PM52.0 °F30.9 °F45 %30.28 in10.0 miSSW (200°)6.9 mphClear
Hourly data recorded from KUTS, located miles away from Huntsville, Texas







STORIES FROM OUR PARTNERS